Location: Newark
(44.2003°N, 3.2583°E)
Time: 02:16:13
(UTC+00:00)

STARLINK-1673 - Pass Details

Date: 26 September 2020
Orbit: 549 x 550 km, 53.0° (Epoch: 27 October)

Event Time Altitude Azimuth Distance (km) Brightness Sun altitude
Exits shadow 02:57:40 25° 15° (NNE) 1,124 5.5 -28.6°
Drops below altitude 10° 03:00:48 10° 65° (ENE) 1,799 7.2 -28.1°
Enters shadow 04:00:51 -65° 286° (WNW) 12,138 10.4 -18.2°
Maximum altitude 04:37:27 58° 29° (NNE) 634 4.1 -11.8°
